Weather reports worldwide

Advertisment
Boulogne, France (7002): temperature & dewpoint: 07.07.2020 07:00:00 - 13.07.2020 07:00:00 (CEST)Boulogne, France (7002): wind speed & gusts: 07.07.2020 07:00:00 - 13.07.2020 07:00:00 (CEST)Boulogne, France (7002): wind direction: 07.07.2020 07:00:00 - 13.07.2020 07:00:00 (CEST)Boulogne, France (7002): reduced air pressure: 07.07.2020 07:00:00 - 13.07.2020 07:00:00 (CEST)Boulogne, France (7002): visibility: 07.07.2020 07:00:00 - 13.07.2020 07:00:00 (CEST)Boulogne, France (7002): precipitation: 07.07.2020 07:00:00 - 13.07.2020 07:00:00 (CEST)
Date & Time tt [°C] td [°C] ff [km/h] ff [kn] fx [km/h] fx [kn] dd ppp [hPa] vv [km] rr [mm]
13.07.2020 07:00:00 14,5 9,1 6 4 10 5 ENE 1025,7 - 0,0
13.07.2020 06:00:00 14,6 9,6 6 3 13 7 NNE 1025,6 - 0,0
13.07.2020 05:00:00 14,3 10,7 7 4 16 9 N 1026,0 25 0,0
13.07.2020 04:00:00 13,4 8,5 11 6 19 10 NNE 1026,2 - 0,0
13.07.2020 03:00:00 14,7 8,6 11 6 22 12 E 1026,5 - 0,0
13.07.2020 02:00:00 14,9 7,7 11 6 20 11 E 1026,8 25 0,0
13.07.2020 01:00:00 15,2 8,4 10 5 24 13 E 1026,8 - 0,0
13.07.2020 00:00:00 15,4 8,2 16 9 29 16 ENE 1026,9 - 0,0
12.07.2020 23:00:00 15,6 8,3 16 9 29 16 ENE 1027,0 - 0,0
12.07.2020 22:00:00 16,6 7,8 16 9 25 13 ENE 1027,0 - 0,0
12.07.2020 21:00:00 17,8 7,8 14 8 25 13 NE 1026,9 - 0,0
12.07.2020 20:00:00 18,6 7,1 13 7 27 14 NE 1027,1 25 0,0
12.07.2020 19:00:00 19,6 8,0 14 7 30 16 NE 1027,2 - 0,0
12.07.2020 18:00:00 19,7 8,1 15 8 29 16 NNE 1027,5 - 0,0
12.07.2020 17:00:00 19,8 8,8 15 8 31 17 NNE 1027,9 - 0,0
12.07.2020 16:00:00 20,0 9,0 16 9 34 18 NNE 1028,2 - 0,0
12.07.2020 15:00:00 19,7 9,0 15 8 29 16 N 1028,5 - 0,0
12.07.2020 14:00:00 19,3 8,9 12 7 28 15 NE 1028,5 25 0,0
12.07.2020 13:00:00 19,0 8,0 10 5 27 15 NNE 1028,8 - 0,0
12.07.2020 12:00:00 19,1 7,2 13 7 22 12 NE 1029,1 - 0,0
12.07.2020 11:00:00 18,2 9,5 9 5 20 11 NE 1029,1 25 0,0
12.07.2020 10:00:00 17,3 10,9 9 5 19 10 E 1029,2 - 0,0
12.07.2020 09:00:00 16,6 11,3 9 5 17 9 ENE 1028,9 - 0,0
12.07.2020 08:00:00 15,4 11,0 8 4 14 8 ENE 1028,6 - 0,0
12.07.2020 07:00:00 13,2 9,6 9 5 12 7 ENE 1028,5 - 0,0
12.07.2020 06:00:00 11,9 9,3 9 5 11 6 ENE 1028,1 - 0,0
12.07.2020 05:00:00 13,6 9,0 6 4 10 6 NE 1027,9 - 0,0
12.07.2020 04:00:00 13,6 9,4 6 4 9 5 NE 1028,0 - 0,0
12.07.2020 03:00:00 12,8 10,7 5 3 7 4 ENE 1028,3 - 0,0
12.07.2020 02:00:00 13,2 10,6 3 2 6 4 ENE 1028,4 25 0,0
12.07.2020 01:00:00 13,6 10,8 4 2 6 3 ESE 1028,4 - 0,0
12.07.2020 00:00:00 14,7 10,7 4 2 6 3 NNE 1028,3 - 0,0
11.07.2020 23:00:00 14,6 11,0 4 2 10 5 NW 1028,4 20 0,0
11.07.2020 22:00:00 15,1 11,9 5 3 14 8 WNW 1027,8 - 0,0
11.07.2020 21:00:00 15,9 11,5 9 5 16 8 W 1027,6 - 0,0
11.07.2020 20:00:00 16,6 11,7 10 6 20 11 W 1027,5 - 0,0
11.07.2020 19:00:00 17,3 12,0 13 7 24 13 W 1027,4 - 0,0
11.07.2020 18:00:00 17,2 10,6 15 8 24 13 W 1027,3 - 0,0
11.07.2020 17:00:00 16,8 11,3 16 9 24 13 W 1027,6 20 0,0
11.07.2020 16:00:00 16,7 10,1 15 8 23 12 W 1027,4 - 0,0
11.07.2020 15:00:00 16,5 10,3 13 7 19 10 W 1027,2 - 0,0
11.07.2020 14:00:00 16,2 8,9 9 5 19 11 W 1027,3 20 0,0
11.07.2020 13:00:00 15,5 9,8 11 6 21 11 W 1027,0 - 0,0
11.07.2020 12:00:00 15,1 10,3 9 5 18 10 W 1026,8 - 0,0
11.07.2020 11:00:00 14,7 10,3 10 6 21 11 WNW 1026,3 20 0,0
11.07.2020 10:00:00 14,7 10,3 12 6 23 13 NNW 1025,9 - 0,0
11.07.2020 09:00:00 14,3 10,5 15 8 27 14 NNW 1025,5 - 0,0
11.07.2020 08:00:00 14,0 10,4 14 8 26 14 NNW 1024,9 20 0,0
11.07.2020 07:00:00 13,5 10,1 15 8 28 15 NNW 1024,3 - 0,0
11.07.2020 06:00:00 13,6 9,6 17 9 29 15 NNW 1023,9 - 0,0
11.07.2020 05:00:00 13,6 9,2 15 8 29 15 NNW 1023,6 - 0,0
11.07.2020 04:00:00 13,9 9,9 14 8 24 13 NNW 1023,4 - 0,0
11.07.2020 03:00:00 14,4 10,0 14 8 26 14 NW 1023,2 - 0,0
11.07.2020 02:00:00 14,2 9,2 7 4 14 8 N 1022,8 - 0,0
11.07.2020 01:00:00 14,3 9,1 7 4 17 9 N 1022,5 - 0,0
11.07.2020 00:00:00 14,5 9,1 9 5 16 8 NNW 1022,0 - 0,0
10.07.2020 23:00:00 15,0 9,8 8 4 13 7 NW 1021,4 - 0,0
10.07.2020 22:00:00 15,7 9,6 7 4 15 8 WNW 1020,8 - 0,0
10.07.2020 21:00:00 16,6 9,0 8 4 16 9 NW 1020,4 - 0,0
10.07.2020 20:00:00 17,5 9,9 10 5 22 12 NW 1019,9 15 0,0
10.07.2020 19:00:00 17,9 10,3 10 5 23 12 WNW 1019,6 - 0,0
10.07.2020 18:00:00 18,1 10,2 13 7 24 13 WNW 1019,1 - 0,0
10.07.2020 17:00:00 17,4 12,5 19 10 33 18 WSW 1019,1 - 0,0
10.07.2020 16:00:00 16,5 11,8 18 10 27 15 WSW 1018,9 - 0,0
10.07.2020 15:00:00 16,4 11,3 13 7 18 10 W 1018,5 - 0,0
10.07.2020 14:00:00 16,5 11,8 9 5 23 12 WNW 1018,1 15 0,0
10.07.2020 13:00:00 15,7 11,9 13 7 29 16 NNW 1017,7 - 0,0
10.07.2020 12:00:00 15,9 13,0 19 10 35 19 NNW 1017,0 - 0,0
10.07.2020 11:00:00 14,1 12,5 21 11 37 20 NNW 1016,0 - 0,2
10.07.2020 10:00:00 13,5 12,9 23 12 40 22 NNW 1015,2 - 1,6
10.07.2020 09:00:00 13,9 13,1 23 12 36 20 NNW 1014,2 - 0,0
10.07.2020 08:00:00 14,4 13,6 21 11 35 19 NNW 1013,3 - 0,2
10.07.2020 07:00:00 14,4 13,9 20 11 34 18 NNW 1012,6 - 0,4
10.07.2020 06:00:00 14,8 14,5 19 10 36 19 NNW 1011,8 - 0,0
10.07.2020 05:00:00 15,3 14,8 18 10 41 22 WNW 1011,3 8 0,0
10.07.2020 04:00:00 15,9 15,6 29 16 51 28 W 1011,1 - 0,0
10.07.2020 03:00:00 15,5 15,2 29 15 54 29 WSW 1011,0 - 0,0
10.07.2020 02:00:00 15,3 14,8 29 16 56 30 WSW 1011,2 - 0,0
10.07.2020 01:00:00 15,3 14,5 31 17 53 29 WSW 1011,2 - 0,0
10.07.2020 00:00:00 15,6 14,6 31 17 44 24 SW 1011,6 - 0,0
09.07.2020 23:00:00 15,6 14,6 26 14 45 24 SW 1011,6 9 0,0
09.07.2020 22:00:00 15,7 14,7 29 16 41 22 SW 1011,6 - 0,0
09.07.2020 21:00:00 15,9 14,9 26 14 36 19 SW 1011,8 - 0,0
09.07.2020 20:00:00 16,0 15,0 26 14 45 25 WSW 1012,3 - 0,0
09.07.2020 19:00:00 16,5 15,2 31 17 50 27 WSW 1012,9 - 0,0
09.07.2020 18:00:00 16,7 15,1 26 14 49 27 WSW 1013,1 - 0,0
09.07.2020 17:00:00 17,2 15,2 25 13 46 25 WSW 1013,5 - 0,0
09.07.2020 16:00:00 16,6 15,3 34 18 54 29 SW 1014,0 - 0,0
09.07.2020 15:00:00 16,8 15,5 36 19 54 29 SW 1014,0 - 0,0
09.07.2020 14:00:00 16,2 14,9 39 21 58 31 SW 1014,2 - 0,0
09.07.2020 13:00:00 15,9 14,6 36 19 55 30 SW 1014,5 - 0,0
09.07.2020 12:00:00 15,9 14,6 27 15 48 26 SW 1014,5 - 0,0
09.07.2020 11:00:00 15,4 14,4 24 13 46 25 SSW 1014,6 - 0,0
09.07.2020 10:00:00 15,4 14,4 34 18 48 26 SW 1014,8 - 0,0
09.07.2020 09:00:00 15,2 14,4 33 18 48 26 SW 1014,6 - 0,0
09.07.2020 08:00:00 14,7 14,5 32 18 51 28 SW 1014,6 - 0,0
09.07.2020 07:00:00 14,6 14,6 34 19 50 27 SW 1014,7 - 0,0
09.07.2020 06:00:00 14,6 14,6 38 20 56 30 SW 1014,9 - 0,0
09.07.2020 05:00:00 14,6 14,6 38 21 54 29 SW 1015,1 2,0 0,2
09.07.2020 04:00:00 14,5 14,5 37 20 56 30 SW 1015,3 - 0,0
09.07.2020 03:00:00 14,5 14,5 32 18 51 28 SW 1015,5 - 0,0
09.07.2020 02:00:00 14,7 14,5 34 18 48 26 SW 1016,0 2,0 0,0
09.07.2020 01:00:00 14,7 14,5 31 17 44 24 SW 1016,0 - 0,0
09.07.2020 00:00:00 15,2 15,0 28 15 44 24 SW 1016,2 - 0,0
08.07.2020 23:00:00 15,1 14,9 31 17 44 24 SW 1016,3 2,0 0,0
08.07.2020 22:00:00 15,1 14,9 30 16 48 26 WSW 1016,3 - 0,0
08.07.2020 21:00:00 15,1 14,8 28 15 50 27 SW 1016,2 - 0,0
08.07.2020 20:00:00 15,3 15,0 33 18 48 26 WSW 1016,3 1,0 0,0
08.07.2020 19:00:00 15,4 14,9 30 16 54 29 WSW 1016,2 - 0,0
08.07.2020 18:00:00 15,6 15,1 31 17 49 27 WSW 1016,3 - 0,0
08.07.2020 17:00:00 15,6 15,3 28 15 45 25 WSW 1016,6 1,0 0,0
08.07.2020 16:00:00 15,8 15,3 24 13 42 23 WSW 1016,8 - 0,0
08.07.2020 15:00:00 15,9 15,4 25 13 49 27 WSW 1016,5 - 0,0
08.07.2020 14:00:00 15,6 15,3 29 15 53 29 WSW 1016,3 0,9 0,0
08.07.2020 13:00:00 15,5 15,2 29 16 49 27 WSW 1016,2 - 0,0
08.07.2020 12:00:00 15,2 15,0 29 16 61 33 WSW 1016,2 - 0,2
08.07.2020 11:00:00 14,9 14,7 30 16 55 30 WSW 1015,7 6 0,2
08.07.2020 10:00:00 14,7 14,4 33 18 56 30 WSW 1015,6 - 0,8
08.07.2020 09:00:00 14,7 14,4 28 15 56 31 WSW 1015,4 - 1,2
08.07.2020 08:00:00 14,7 14,2 31 17 52 28 WSW 1015,1 - 0,0
08.07.2020 07:00:00 14,6 14,1 29 16 51 28 WSW 1015,1 - 0,2
08.07.2020 06:00:00 14,5 13,9 30 16 49 26 WSW 1015,3 - 0,2
08.07.2020 05:00:00 14,4 13,8 28 15 49 26 WSW 1015,6 6 1,0
08.07.2020 04:00:00 14,2 13,4 30 16 47 26 WSW 1016,3 - 0,4
08.07.2020 03:00:00 14,5 12,9 28 15 46 25 WSW 1017,0 - 0,0
08.07.2020 02:00:00 14,6 12,5 29 16 44 24 SW 1017,6 12 0,0
08.07.2020 01:00:00 14,6 12,5 27 15 42 23 WSW 1018,1 - 0,0
08.07.2020 00:00:00 14,6 12,3 26 14 43 23 SW 1018,5 - 0,0
07.07.2020 23:00:00 14,5 11,5 24 13 44 24 WSW 1018,7 12 0,0
07.07.2020 22:00:00 14,7 10,7 27 15 44 24 WSW 1018,8 - 0,0
07.07.2020 21:00:00 15,0 10,2 28 15 42 23 SW 1019,0 - 0,0
07.07.2020 20:00:00 15,2 10,8 26 14 43 23 SW 1019,3 17 0,0
07.07.2020 19:00:00 15,6 11,0 23 12 44 24 WSW 1019,6 - 0,0
07.07.2020 18:00:00 16,4 11,3 24 13 40 22 WSW 1019,9 - 0,0
07.07.2020 17:00:00 16,6 11,1 21 11 37 20 WSW 1020,5 - 0,0
07.07.2020 16:00:00 17,1 12,0 21 12 34 19 SW 1020,8 - 0,0
07.07.2020 15:00:00 16,9 11,4 21 12 31 17 SW 1021,0 - 0,0
07.07.2020 14:00:00 17,8 8,9 16 8 26 14 WSW 1021,4 17 0,0
07.07.2020 13:00:00 17,3 9,2 14 8 23 12 WSW 1021,7 - 0,0
07.07.2020 12:00:00 16,7 10,5 10 6 19 10 W 1022,0 - 0,0
07.07.2020 11:00:00 15,7 10,0 7 4 13 7 W 1022,3 20 0,0
07.07.2020 10:00:00 15,7 10,0 6 3 11 6 WNW 1022,2 - 0,0
07.07.2020 09:00:00 15,0 9,1 3 2 7 4 WSW 1022,1 - 0,0
07.07.2020 08:00:00 13,7 9,3 3 2 8 4 ESE 1022,0 20 0,0
07.07.2020 07:00:00 13,6 8,4 4 2 14 8 E 1022,0 - 0,0

tt = temperature
td = dewpoint
ff = wind speed
fx = gusts
dd = wind direction
ppp = reduced air pressure
vv = visibility
rr = precipitation

Next stations